| time (UTC) | temp F | wind direction | speed MPH | gust MPH | rain 1hr in | rain 24hr in | rain mn in | humidity % | barometer mb |
| 20260831141521 | 71 | 266 | 3.0 | 12.0 | 0.00 | 0.33 | 0.22 | 72 | 1017.6 |
| 20260831141057 | 71 | 273 | 4.0 | 13.0 | 0.00 | 0.33 | 0.22 | 74 | 1017.6 |
| 20260831140521 | 70 | 257 | 3.0 | 13.0 | 0.00 | 0.33 | 0.22 | 76 | 1017.6 |
| 20260831140015 | 70 | 280 | 2.0 | 13.0 | 0.00 | 0.33 | 0.22 | 79 | 1017.7 |
| 20260831135552 | 70 | 290 | 2.0 | 5.0 | 0.00 | 0.33 | 0.22 | 76 | 1017.6 |
| 20260831135017 | 71 | 275 | 3.0 | 8.0 | 0.00 | 0.33 | 0.22 | 74 | 1016.9 |
| 20260831134522 | 71 | 285 | 2.0 | 10.0 | 0.00 | 0.33 | 0.22 | 73 | 1016.7 |
| 20260831134017 | 72 | 277 | 3.0 | 11.0 | 0.00 | 0.33 | 0.22 | 73 | 1016.7 |
| 20260831133523 | 71 | 281 | 3.0 | 10.0 | 0.00 | 0.33 | 0.22 | 74 | 1016.7 |
| 20260831133117 | 71 | 276 | 3.0 | 9.0 | 0.00 | 0.33 | 0.22 | 75 | 1016.6 |
| 20260831132524 | 71 | 280 | 2.0 | 11.0 | 0.00 | 0.33 | 0.22 | 77 | 1016.6 |
| 20260831132018 | 70 | 299 | 2.0 | 4.0 | 0.00 | 0.33 | 0.22 | 79 | 1017.2 |
| 20260831131525 | 69 | 289 | 2.0 | 5.0 | 0.00 | 0.33 | 0.22 | 82 | 1017.6 |
| 20260831131019 | 68 | 282 | 2.0 | 7.0 | 0.00 | 0.33 | 0.22 | 84 | 1017.6 |
| 20260831130525 | 68 | 281 | 2.0 | 8.0 | 0.00 | 0.33 | 0.22 | 85 | 1017.6 |
| 20260831130020 | 68 | 278 | 2.0 | 7.0 | 0.00 | 0.33 | 0.22 | 85 | 1017.6 |
| 20260831125525 | 69 | 296 | 1.0 | 5.0 | 0.00 | 0.33 | 0.22 | 84 | 1017.6 |
| 20260831125020 | 69 | 303 | 1.0 | 3.0 | 0.00 | 0.33 | 0.22 | 83 | 1017.7 |
| 20260831124556 | 70 | 281 | 2.0 | 6.0 | 0.00 | 0.33 | 0.22 | 82 | 1017.7 |
| 20260831124020 | 70 | 291 | 1.0 | 3.0 | 0.00 | 0.33 | 0.22 | 83 | 1017.7 |
| 20260831123557 | 69 | 296 | 1.0 | 3.0 | 0.03 | 0.33 | 0.22 | 83 | 1017.7 |
| 20260831123021 | 68 | 296 | 0.0 | 3.0 | 0.03 | 0.33 | 0.22 | 87 | 1017.6 |
| 20260831122545 | 68 | 301 | 1.0 | 3.0 | 0.03 | 0.33 | 0.22 | 87 | 1017.6 |
| 20260831122022 | 67 | 323 | 0.0 | 1.0 | 0.03 | 0.33 | 0.22 | 89 | 1017.6 |
| 20260831121516 | 67 | 305 | 0.0 | 2.0 | 0.03 | 0.33 | 0.22 | 89 | 1017.6 |
| 20260831121022 | 66 | 293 | 1.0 | 5.0 | 0.04 | 0.33 | 0.22 | 90 | 1017.6 |
| 20260831120516 | 66 | 278 | 2.0 | 5.0 | 0.04 | 0.33 | 0.22 | 91 | 1017.6 |
| 20260831120106 | 65 | 282 | 2.0 | 10.0 | 0.04 | 0.33 | 0.22 | 92 | 1017.6 |
| 20260831115530 | 65 | 296 | 2.0 | 3.0 | 0.04 | 0.33 | 0.22 | 93 | 1017.6 |
| 20260831115024 | 65 | 307 | 1.0 | 8.0 | 0.04 | 0.33 | 0.22 | 93 | 1017.6 |
| 20260831114518 | 66 | 295 | 2.0 | 6.0 | 0.04 | 0.33 | 0.22 | 91 | 1017.6 |
| 20260831114023 | 67 | 309 | 1.0 | 5.0 | 0.04 | 0.33 | 0.22 | 87 | 1017.6 |
| 20260831113517 | 67 | 311 | 1.0 | 2.0 | 0.01 | 0.30 | 0.19 | 86 | 1017.6 |
| 20260831113024 | 67 | 285 | 1.0 | 3.0 | 0.01 | 0.30 | 0.19 | 85 | 1017.6 |
| 20260831112518 | 67 | 293 | 1.0 | 5.0 | 0.01 | 0.30 | 0.19 | 86 | 1017.6 |
| 20260831112024 | 67 | 308 | 1.0 | 5.0 | 0.01 | 0.30 | 0.19 | 85 | 1017.6 |
| 20260831111519 | 67 | 304 | 0.0 | 2.0 | 0.01 | 0.30 | 0.19 | 84 | 1017.6 |
| 20260831111125 | 68 | 295 | 1.0 | 7.0 | 0.00 | 0.29 | 0.18 | 82 | 1017.6 |
| 20260831110519 | 69 | 290 | 2.0 | 5.0 | 0.00 | 0.29 | 0.18 | 80 | 1017.6 |
| 20260831110026 | 69 | 0.0 | 0.0 | 0.00 | 0.29 | 0.18 | 80 | 1016.6 | |
| 20260831105913 | 70 | 273 | 3.0 | 9.0 | 0.00 | 0.29 | 0.18 | 73 | 1016.6 |
| 20260831105026 | 71 | 293 | 2.0 | 5.0 | 0.00 | 0.29 | 0.18 | 73 | 1016.7 |
| 20260831104852 | 71 | 269 | 3.0 | 8.0 | 0.00 | 0.29 | 0.18 | 72 | 1016.7 |
| 20260831104057 | 70 | 261 | 4.0 | 13.0 | 0.00 | 0.29 | 0.18 | 73 | 1016.6 |
| 20260831103521 | 70 | 275 | 2.0 | 8.0 | 0.00 | 0.29 | 0.18 | 75 | 1016.6 |
| 20260831103015 | 70 | 287 | 2.0 | 10.0 | 0.00 | 0.29 | 0.18 | 75 | 1017.4 |
| 20260831102521 | 69 | 266 | 2.0 | 10.0 | 0.00 | 0.29 | 0.18 | 77 | 1017.6 |
| 20260831102015 | 69 | 279 | 2.0 | 10.0 | 0.00 | 0.29 | 0.18 | 78 | 1017.6 |
| 20260831101521 | 68 | 272 | 2.0 | 6.0 | 0.00 | 0.29 | 0.18 | 79 | 1017.6 |
| 20260831101046 | 67 | 288 | 2.0 | 6.0 | 0.00 | 0.29 | 0.18 | 82 | 1017.6 |
| 20260831100622 | 66 | 290 | 1.0 | 7.0 | 0.00 | 0.29 | 0.18 | 83 | 1017.5 |
| 20260831100016 | 67 | 291 | 2.0 | 5.0 | 0.00 | 0.29 | 0.18 | 83 | 1017.6 |
| 20260831095522 | 67 | 288 | 2.0 | 6.0 | 0.00 | 0.29 | 0.18 | 81 | 1017.6 |
| 20260831095017 | 67 | 276 | 2.0 | 8.0 | 0.00 | 0.29 | 0.18 | 82 | 1017.6 |
| 20260831094523 | 67 | 289 | 2.0 | 5.0 | 0.00 | 0.29 | 0.18 | 82 | 1017.6 |
| 20260831094017 | 67 | 292 | 2.0 | 10.0 | 0.00 | 0.29 | 0.18 | 82 | 1017.6 |
| 20260831093523 | 66 | 289 | 2.0 | 6.0 | 0.00 | 0.29 | 0.18 | 83 | 1017.5 |
| 20260831093017 | 65 | 318 | 1.0 | 5.0 | 0.00 | 0.29 | 0.18 | 84 | 1017.5 |
| 20260831092523 | 65 | 280 | 2.0 | 8.0 | 0.00 | 0.29 | 0.18 | 85 | 1017.5 |
| 20260831092018 | 65 | 306 | 1.0 | 5.0 | 0.00 | 0.29 | 0.18 | 86 | 1017.5 |
| 20260831091523 | 65 | 310 | 1.0 | 5.0 | 0.00 | 0.29 | 0.18 | 86 | 1017.5 |
| 20260831091017 | 65 | 286 | 2.0 | 6.0 | 0.00 | 0.29 | 0.18 | 86 | 1017.5 |
| 20260831090523 | 65 | 295 | 2.0 | 8.0 | 0.00 | 0.29 | 0.18 | 86 | 1017.5 |
| 20260831090017 | 65 | 265 | 2.0 | 10.0 | 0.00 | 0.29 | 0.18 | 87 | 1017.5 |
| 20260831085524 | 65 | 283 | 2.0 | 6.0 | 0.00 | 0.29 | 0.18 | 87 | 1017.5 |
| 20260831085018 | 65 | 292 | 3.0 | 7.0 | 0.00 | 0.29 | 0.18 | 88 | 1017.5 |
| 20260831084525 | 64 | 300 | 2.0 | 5.0 | 0.00 | 0.29 | 0.18 | 89 | 1017.5 |
| 20260831084018 | 64 | 257 | 1.0 | 5.0 | 0.00 | 0.29 | 0.18 | 91 | 1017.5 |
| 20260831083554 | 63 | 279 | 2.0 | 6.0 | 0.00 | 0.29 | 0.18 | 92 | 1017.5 |
| 20260831083018 | 63 | 324 | 0.0 | 1.0 | 0.00 | 0.29 | 0.18 | 92 | 1017.5 |
| 20260831082524 | 63 | 306 | 1.0 | 2.0 | 0.00 | 0.29 | 0.18 | 93 | 1017.5 |
| 20260831082018 | 63 | 284 | 2.0 | 5.0 | 0.00 | 0.29 | 0.18 | 93 | 1017.5 |
| 20260831081524 | 62 | 293 | 1.0 | 5.0 | 0.00 | 0.29 | 0.18 | 93 | 1017.5 |
| 20260831081018 | 62 | 297 | 2.0 | 5.0 | 0.00 | 0.29 | 0.18 | 93 | 1017.5 |
| 20260831080524 | 62 | 311 | 1.0 | 3.0 | 0.00 | 0.29 | 0.18 | 93 | 1017.5 |
| 20260831080018 | 62 | 291 | 2.0 | 6.0 | 0.00 | 0.29 | 0.18 | 94 | 1017.5 |
| 20260831075654 | 62 | 291 | 2.0 | 7.0 | 0.00 | 0.29 | 0.18 | 94 | 1017.5 |
| 20260831075018 | 62 | 302 | 1.0 | 5.0 | 0.00 | 0.29 | 0.18 | 94 | 1017.5 |
| 20260831074524 | 62 | 289 | 1.0 | 8.0 | 0.00 | 0.29 | 0.18 | 94 | 1017.5 |
| 20260831074018 | 62 | 296 | 1.0 | 5.0 | 0.00 | 0.29 | 0.18 | 94 | 1017.5 |
| 20260831073538 | 62 | 302 | 1.0 | 6.0 | 0.00 | 0.29 | 0.18 | 94 | 1017.5 |
| 20260831073032 | 62 | 308 | 1.0 | 3.0 | 0.00 | 0.29 | 0.18 | 95 | 1017.5 |
| 20260831072556 | 61 | 319 | 0.0 | 1.0 | 0.00 | 0.29 | 0.18 | 96 | 1016.5 |
| 20260831072020 | 61 | 304 | 1.0 | 6.0 | 0.00 | 0.29 | 0.18 | 96 | 1016.5 |
| 20260831071525 | 61 | 313 | 0.0 | 2.0 | 0.00 | 0.29 | 0.18 | 96 | 1016.5 |
| 20260831071019 | 61 | 308 | 1.0 | 2.0 | 0.00 | 0.29 | 0.18 | 96 | 1017.5 |
| 20260831070525 | 61 | 309 | 1.0 | 2.0 | 0.00 | 0.29 | 0.18 | 96 | 1017.5 |
| 20260831070019 | 61 | 309 | 1.0 | 5.0 | 0.00 | 0.29 | 0.18 | 96 | 1017.5 |
| 20260831065526 | 62 | 293 | 2.0 | 7.0 | 0.00 | 0.29 | 0.18 | 95 | 1017.6 |
| 20260831065019 | 62 | 295 | 1.0 | 6.0 | 0.00 | 0.29 | 0.18 | 95 | 1017.6 |
| 20260831064526 | 62 | 315 | 0.0 | 2.0 | 0.00 | 0.29 | 0.18 | 95 | 1017.6 |
| 20260831064020 | 62 | 311 | 1.0 | 2.0 | 0.00 | 0.29 | 0.18 | 95 | 1016.7 |
| 20260831063525 | 62 | 305 | 1.0 | 5.0 | 0.00 | 0.29 | 0.18 | 95 | 1016.6 |
| 20260831063020 | 62 | 295 | 2.0 | 7.0 | 0.00 | 0.29 | 0.18 | 95 | 1016.6 |
| 20260831062526 | 62 | 292 | 1.0 | 5.0 | 0.00 | 0.29 | 0.18 | 96 | 1016.6 |
| 20260831062020 | 62 | 313 | 1.0 | 2.0 | 0.00 | 0.29 | 0.18 | 96 | 1016.6 |
| 20260831061526 | 62 | 314 | 0.0 | 2.0 | 0.00 | 0.29 | 0.18 | 96 | 1016.6 |
| 20260831061020 | 62 | 301 | 1.0 | 6.0 | 0.00 | 0.29 | 0.18 | 96 | 1016.6 |
| 20260831060527 | 62 | 308 | 1.0 | 5.0 | 0.00 | 0.29 | 0.18 | 96 | 1016.6 |
| 20260831060050 | 63 | 316 | 0.0 | 2.0 | 0.00 | 0.29 | 0.18 | 96 | 1016.6 |
| 20260831055556 | 63 | 320 | 0.0 | 1.0 | 0.00 | 0.29 | 0.18 | 96 | 1017.4 |
| 20260831055050 | 62 | 0.0 | 0.0 | 0.00 | 0.29 | 0.18 | 98 | 1017.7 | |
| 20260831054526 | 61 | 0.0 | 0.0 | 0.00 | 0.29 | 0.18 | 99 | 1017.7 | |
| 20260831054050 | 61 | 0.0 | 0.0 | 0.00 | 0.29 | 0.18 | 98 | 1017.1 | |
| 20260831053526 | 61 | 0.0 | 0.0 | 0.00 | 0.29 | 0.18 | 99 | 1016.7 | |
| 20260831053050 | 60 | 319 | 0.0 | 0.0 | 0.00 | 0.29 | 0.18 | 99 | 1016.6 |
| 20260831052556 | 60 | 323 | 0.0 | 2.0 | 0.00 | 0.29 | 0.18 | 99 | 1016.7 |
| 20260831052020 | 60 | 299 | 1.0 | 3.0 | 0.00 | 0.29 | 0.18 | 99 | 1016.7 |
| 20260831051527 | 61 | 320 | 0.0 | 2.0 | 0.00 | 0.29 | 0.18 | 99 | 1016.7 |
| 20260831051021 | 61 | 317 | 1.0 | 2.0 | 0.00 | 0.29 | 0.18 | 99 | 1016.7 |
| 20260831050515 | 61 | 290 | 1.0 | 4.0 | 0.00 | 0.29 | 0.18 | 99 | 1016.7 |
| 20260831050021 | 61 | 303 | 0.0 | 2.0 | 0.00 | 0.29 | 0.18 | 99 | 1016.7 |
| 20260831045515 | 61 | 307 | 1.0 | 2.0 | 0.00 | 0.29 | 0.18 | 99 | 1016.7 |
| 20260831045051 | 61 | 285 | 1.0 | 2.0 | 0.00 | 0.29 | 0.18 | 99 | 1016.7 |
| 20260831044515 | 61 | 283 | 1.0 | 3.0 | 0.00 | 0.29 | 0.18 | 99 | 1016.7 |
| 20260831044021 | 61 | 283 | 1.0 | 2.0 | 0.00 | 0.29 | 0.18 | 99 | 1016.7 |
| 20260831043515 | 61 | 283 | 0.0 | 4.0 | 0.00 | 0.29 | 0.18 | 99 | 1016.7 |
| 20260831043021 | 61 | 283 | 0.0 | 2.0 | 0.00 | 0.29 | 0.18 | 99 | 1016.7 |
| 20260831042515 | 61 | 283 | 0.0 | 2.0 | 0.00 | 0.29 | 0.18 | 99 | 1016.8 |
| 20260831042021 | 61 | 283 | 0.0 | 0.0 | 0.00 | 0.29 | 0.18 | 99 | 1016.8 |
| 20260831041515 | 61 | 283 | 0.0 | 2.0 | 0.00 | 0.29 | 0.18 | 99 | 1016.8 |
| 20260831041022 | 61 | 283 | 0.0 | 3.0 | 0.00 | 0.29 | 0.18 | 99 | 1016.8 |
| 20260831040515 | 61 | 283 | 0.0 | 2.0 | 0.00 | 0.29 | 0.18 | 99 | 1016.8 |
| 20260831040022 | 61 | 283 | 0.0 | 2.0 | 0.00 | 0.29 | 0.18 | 99 | 1016.8 |
| 20260831035516 | 61 | 0.0 | 0.0 | 0.00 | 0.29 | 0.18 | 99 | 1016.8 | |
| 20260831035053 | 61 | 0.0 | 0.0 | 0.00 | 0.29 | 0.18 | 99 | 1016.8 | |
| 20260831034519 | 61 | 283 | 0.0 | 1.0 | 0.00 | 0.29 | 0.18 | 99 | 1016.8 |
| 20260831034025 | 61 | 283 | 0.0 | 2.0 | 0.00 | 0.29 | 0.18 | 99 | 1016.8 |
| 20260831033516 | 61 | 283 | 1.0 | 3.0 | 0.00 | 0.29 | 0.18 | 99 | 1016.8 |
| 20260831033023 | 61 | 282 | 0.0 | 2.0 | 0.00 | 0.29 | 0.18 | 99 | 1016.8 |
| 20260831032517 | 61 | 283 | 0.0 | 2.0 | 0.00 | 0.29 | 0.18 | 99 | 1016.8 |
| 20260831032036 | 61 | 283 | 0.0 | 2.0 | 0.00 | 0.29 | 0.18 | 99 | 1016.8 |
| 20260831031530 | 61 | 282 | 0.0 | 1.0 | 0.00 | 0.29 | 0.18 | 99 | 1016.8 |
| 20260831031024 | 61 | 283 | 0.0 | 1.0 | 0.00 | 0.29 | 0.18 | 99 | 1016.8 |
| 20260831030517 | 61 | 283 | 0.0 | 1.0 | 0.00 | 0.29 | 0.18 | 99 | 1016.8 |
| 20260831030022 | 61 | 283 | 0.0 | 1.0 | 0.00 | 0.29 | 0.18 | 99 | 1016.8 |
| 20260831025517 | 61 | 0.0 | 0.0 | 0.00 | 0.29 | 0.18 | 99 | 1016.8 | |
| 20260831025024 | 61 | 283 | 0.0 | 2.0 | 0.00 | 0.29 | 0.18 | 99 | 1016.8 |
| 20260831024518 | 61 | 283 | 0.0 | 1.0 | 0.00 | 0.29 | 0.18 | 99 | 1016.8 |
| 20260831024024 | 61 | 283 | 0.0 | 1.0 | 0.00 | 0.29 | 0.18 | 99 | 1016.8 |
| 20260831023616 | 61 | 0.0 | 0.0 | 0.00 | 0.29 | 0.18 | 99 | 1016.8 | |
| 20260831023053 | 62 | 0.0 | 0.0 | 0.00 | 0.29 | 0.18 | 99 | 1016.8 | |
| 20260831022617 | 62 | 283 | 0.0 | 1.0 | 0.00 | 0.29 | 0.18 | 99 | 1016.8 |
| 20260831022023 | 62 | 0.0 | 0.0 | 0.00 | 0.29 | 0.18 | 99 | 1015.9 | |
| 20260831021517 | 62 | 0.0 | 0.0 | 0.00 | 0.29 | 0.18 | 99 | 1015.8 | |
| 20260831021023 | 62 | 283 | 0.0 | 2.0 | 0.00 | 0.29 | 0.18 | 99 | 1015.8 |
| 20260831020517 | 62 | 0.0 | 0.0 | 0.00 | 0.29 | 0.18 | 99 | 1016.5 | |
| 20260831020023 | 62 | 284 | 0.0 | 2.0 | 0.00 | 0.29 | 0.18 | 99 | 1016.8 |
| 20260831015547 | 62 | 0.0 | 0.0 | 0.00 | 0.29 | 0.18 | 99 | 1016.8 | |
| 20260831015053 | 62 | 0.0 | 0.0 | 0.00 | 0.29 | 0.18 | 99 | 1016.8 | |
| 20260831014945 | 62 | 0.0 | 0.0 | 0.00 | 0.29 | 0.18 | 99 | 1015.8 | |
| 20260831014023 | 62 | 0.0 | 0.0 | 0.00 | 0.29 | 0.18 | 99 | 1015.8 | |
| 20260831013912 | 62 | 284 | 0.0 | 2.0 | 0.00 | 0.29 | 0.18 | 99 | 1015.8 |
| 20260831013024 | 62 | 284 | 0.0 | 0.0 | 0.00 | 0.29 | 0.18 | 99 | 1015.8 |
| 20260831012518 | 62 | 284 | 0.0 | 1.0 | 0.00 | 0.29 | 0.18 | 99 | 1015.8 |
| 20260831012024 | 62 | 283 | 0.0 | 1.0 | 0.00 | 0.29 | 0.18 | 99 | 1015.8 |
| 20260831011518 | 62 | 284 | 0.0 | 2.0 | 0.00 | 0.29 | 0.18 | 99 | 1015.8 |
| 20260831011024 | 62 | 283 | 0.0 | 1.0 | 0.00 | 0.29 | 0.18 | 99 | 1015.8 |
| 20260831010518 | 62 | 0.0 | 0.0 | 0.00 | 0.29 | 0.18 | 99 | 1015.8 | |
| 20260831010025 | 62 | 0.0 | 0.0 | 0.00 | 0.29 | 0.18 | 99 | 1015.8 | |
| 20260831005519 | 62 | 0.0 | 0.0 | 0.00 | 0.29 | 0.18 | 99 | 1015.8 | |
| 20260831005025 | 62 | 0.0 | 0.0 | 0.00 | 0.29 | 0.18 | 99 | 1015.8 | |
| 20260831004520 | 63 | 0.0 | 0.0 | 0.00 | 0.29 | 0.18 | 99 | 1015.8 | |
| 20260831004026 | 63 | 283 | 0.0 | 2.0 | 0.00 | 0.29 | 0.18 | 99 | 1015.8 |
| 20260831003550 | 63 | 283 | 0.0 | 1.0 | 0.00 | 0.29 | 0.18 | 99 | 1015.8 |
| 20260831003027 | 63 | 285 | 0.0 | 1.0 | 0.01 | 0.29 | 0.18 | 99 | 1015.8 |
| 20260831002521 | 63 | 285 | 0.0 | 2.0 | 0.01 | 0.29 | 0.18 | 99 | 1015.8 |
| 20260831002015 | 63 | 284 | 0.0 | 2.0 | 0.02 | 0.29 | 0.18 | 99 | 1015.8 |
| 20260831001521 | 63 | 286 | 0.0 | 1.0 | 0.02 | 0.29 | 0.18 | 99 | 1015.8 |
| 20260831001046 | 63 | 284 | 0.0 | 2.0 | 0.02 | 0.29 | 0.18 | 99 | 1015.8 |
| 20260831000522 | 63 | 284 | 0.0 | 0.0 | 0.02 | 0.29 | 0.18 | 99 | 1015.8 |
| 20260831000016 | 63 | 285 | 0.0 | 2.0 | 0.04 | 0.29 | 0.18 | 99 | 1015.8 |
| 20260830235553 | 63 | 286 | 0.0 | 1.0 | 0.07 | 0.29 | 0.18 | 99 | 1015.8 |
| 20260830235017 | 63 | 287 | 0.0 | 1.0 | 0.07 | 0.29 | 0.18 | 99 | 1015.8 |
| 20260830234523 | 63 | 286 | 0.0 | 1.0 | 0.08 | 0.29 | 0.18 | 99 | 1015.8 |
| 20260830234017 | 63 | 0.0 | 0.0 | 0.09 | 0.29 | 0.18 | 99 | 1015.8 | |
| 20260830233524 | 63 | 283 | 0.0 | 2.0 | 0.10 | 0.29 | 0.18 | 99 | 1015.8 |
| 20260830233218 | 63 | 285 | 0.0 | 1.0 | 0.12 | 0.28 | 0.17 | 99 | 1015.8 |
| 20260830232624 | 63 | 0.0 | 0.0 | 0.15 | 0.28 | 0.17 | 99 | 1015.8 | |
| 20260830232018 | 63 | 286 | 0.0 | 1.0 | 0.15 | 0.27 | 0.16 | 99 | 1015.8 |
| 20260830231525 | 63 | 286 | 0.0 | 1.0 | 0.15 | 0.27 | 0.16 | 99 | 1015.8 |
| 20260830231019 | 63 | 290 | 0.0 | 1.0 | 0.15 | 0.27 | 0.16 | 99 | 1015.8 |
| 20260830230525 | 63 | 285 | 0.0 | 2.0 | 0.15 | 0.27 | 0.16 | 99 | 1015.8 |
| 20260830230019 | 63 | 284 | 1.0 | 3.0 | 0.14 | 0.25 | 0.14 | 99 | 1015.8 |
| 20260830225526 | 63 | 284 | 1.0 | 5.0 | 0.11 | 0.22 | 0.11 | 99 | 1015.7 |
| 20260830225020 | 63 | 286 | 0.0 | 2.0 | 0.11 | 0.22 | 0.11 | 99 | 1015.7 |
| 20260830224526 | 63 | 285 | 0.0 | 2.0 | 0.11 | 0.21 | 0.10 | 99 | 1015.7 |
| 20260830224049 | 63 | 284 | 0.0 | 1.0 | 0.12 | 0.20 | 0.09 | 99 | 1015.7 |
| 20260830223526 | 63 | 283 | 0.0 | 1.0 | 0.13 | 0.19 | 0.08 | 99 | 1015.7 |
| 20260830223020 | 63 | 0.0 | 0.0 | 0.11 | 0.16 | 0.05 | 99 | 1015.7 | |
| 20260830222526 | 63 | 0.0 | 0.0 | 0.09 | 0.13 | 0.02 | 99 | 1015.7 | |
| 20260830222020 | 63 | 0.0 | 0.0 | 0.09 | 0.12 | 0.01 | 99 | 1015.7 | |
| 20260830221540 | 63 | 0.0 | 0.0 | 0.10 | 0.12 | 0.01 | 99 | 1015.7 | |
| 20260830221034 | 63 | 0.0 | 0.0 | 0.11 | 0.12 | 0.01 | 99 | 1015.7 | |
| 20260830220529 | 63 | 0.0 | 0.0 | 0.12 | 0.12 | 0.01 | 98 | 1015.7 | |
| 20260830220022 | 63 | 0.0 | 0.0 | 0.11 | 0.11 | 0.00 | 98 | 1015.7 | |
| 20260830215517 | 63 | 0.0 | 0.0 | 0.11 | 0.11 | 0.11 | 97 | 1015.7 | |
| 20260830215022 | 63 | 0.0 | 0.0 | 0.11 | 0.11 | 0.11 | 97 | 1015.7 | |
| 20260830214516 | 63 | 0.0 | 0.0 | 0.10 | 0.10 | 0.10 | 97 | 1015.7 | |
| 20260830214022 | 63 | 0.0 | 0.0 | 0.08 | 0.08 | 0.08 | 96 | 1015.7 | |
| 20260830213516 | 63 | 0.0 | 0.0 | 0.06 | 0.06 | 0.06 | 96 | 1015.7 | |
| 20260830213022 | 63 | 0.0 | 0.0 | 0.05 | 0.05 | 0.05 | 97 | 1015.7 | |
| 20260830212546 | 63 | 0.0 | 0.0 | 0.04 | 0.04 | 0.04 | 96 | 1015.7 | |
| 20260830212023 | 63 | 0.0 | 0.0 | 0.03 | 0.03 | 0.03 | 95 | 1015.7 | |
| 20260830211517 | 63 | 0.0 | 0.0 | 0.02 | 0.02 | 0.02 | 95 | 1015.7 | |
| 20260830211023 | 64 | 0.0 | 0.0 | 0.01 | 0.01 | 0.01 | 94 | 1015.7 | |
| 20260830210517 | 64 | 0.0 | 0.0 | 0.00 | 0.00 | 0.00 | 93 | 1015.7 | |
| 20260830210024 | 64 | 0.0 | 0.0 | 0.00 | 0.00 | 0.00 | 92 | 1015.7 | |
| 20260830205518 | 64 | 0.0 | 0.0 | 0.00 | 0.00 | 0.00 | 91 | 1015.7 | |
| 20260830205024 | 64 | 0.0 | 0.0 | 0.00 | 0.00 | 0.00 | 90 | 1015.7 | |
| 20260830204519 | 64 | 0.0 | 0.0 | 0.00 | 0.00 | 0.00 | 89 | 1015.3 | |
| 20260830204025 | 64 | 0.0 | 0.0 | 0.00 | 0.00 | 0.00 | 89 | 1014.6 | |
| 20260830203519 | 64 | 0.0 | 0.0 | 0.00 | 0.00 | 0.00 | 88 | 1014.6 | |
| 20260830203026 | 64 | 0.0 | 0.0 | 0.00 | 0.00 | 0.00 | 87 | 1014.6 | |
| 20260830202550 | 64 | 0.0 | 0.0 | 0.00 | 0.00 | 0.00 | 87 | 1014.6 | |
| 20260830202026 | 64 | 0.0 | 0.0 | 0.00 | 0.00 | 0.00 | 87 | 1014.6 | |
| 20260830201521 | 64 | 0.0 | 0.0 | 0.00 | 0.00 | 0.00 | 86 | 1014.6 | |
| 20260830201127 | 64 | 0.0 | 0.0 | 0.00 | 0.00 | 0.00 | 86 | 1014.6 | |
| 20260830200521 | 64 | 0.0 | 0.0 | 0.00 | 0.00 | 0.00 | 85 | 1014.6 | |
| 20260830200015 | 64 | 0.0 | 0.0 | 0.00 | 0.00 | 0.00 | 85 | 1014.6 | |
| 20260830195521 | 64 | 0.0 | 0.0 | 0.00 | 0.00 | 0.00 | 85 | 1014.6 | |
| 20260830195015 | 64 | 0.0 | 0.0 | 0.00 | 0.00 | 0.00 | 85 | 1014.6 | |
| 20260830194522 | 64 | 0.0 | 0.0 | 0.00 | 0.00 | 0.00 | 84 | 1014.6 | |
| 20260830194016 | 64 | 0.0 | 0.0 | 0.00 | 0.00 | 0.00 | 84 | 1014.6 | |
| 20260830193522 | 64 | 0.0 | 0.0 | 0.00 | 0.00 | 0.00 | 83 | 1014.6 | |
| 20260830193016 | 64 | 0.0 | 0.0 | 0.00 | 0.00 | 0.00 | 83 | 1014.6 | |
| 20260830192523 | 64 | 0.0 | 0.0 | 0.00 | 0.00 | 0.00 | 83 | 1014.6 | |
| 20260830192017 | 64 | 0.0 | 0.0 | 0.00 | 0.00 | 0.00 | 83 | 1014.6 | |
| 20260830191523 | 65 | 0.0 | 0.0 | 0.00 | 0.00 | 0.00 | 83 | 1014.6 | |
| 20260830191017 | 65 | 0.0 | 0.0 | 0.00 | 0.00 | 0.00 | 82 | 1014.6 | |
| 20260830190523 | 65 | 0.0 | 0.0 | 0.00 | 0.00 | 0.00 | 82 | 1014.6 | |
| 20260830190047 | 65 | 0.0 | 0.0 | 0.00 | 0.00 | 0.00 | 82 | 1014.6 | |
| 20260830185524 | 65 | 0.0 | 0.0 | 0.00 | 0.00 | 0.00 | 82 | 1014.6 | |
| 20260830185048 | 66 | 0.0 | 0.0 | 0.00 | 0.00 | 0.00 | 81 | 1014.6 | |
| 20260830184524 | 66 | 0.0 | 0.0 | 0.00 | 0.00 | 0.00 | 82 | 1014.6 | |
| 20260830184018 | 66 | 0.0 | 0.0 | 0.00 | 0.00 | 0.00 | 82 | 1014.6 | |
| 20260830183624 | 67 | 0.0 | 0.0 | 0.00 | 0.00 | 0.00 | 81 | 1014.6 | |
| 20260830183018 | 67 | 0.0 | 0.0 | 0.00 | 0.00 | 0.00 | 80 | 1014.6 | |
| 20260830182525 | 68 | 0.0 | 0.0 | 0.00 | 0.00 | 0.00 | 79 | 1014.6 | |
| 20260830182019 | 68 | 0.0 | 0.0 | 0.00 | 0.00 | 0.00 | 80 | 1014.6 | |
| 20260830181525 | 68 | 0.0 | 0.0 | 0.00 | 0.00 | 0.00 | 78 | 1014.6 | |
| 20260830181019 | 69 | 0.0 | 0.0 | 0.00 | 0.00 | 0.00 | 77 | 1014.6 | |
| 20260830180526 | 69 | 0.0 | 0.0 | 0.00 | 0.00 | 0.00 | 77 | 1014.7 | |
| 20260830180019 | 69 | 0.0 | 0.0 | 0.00 | 0.00 | 0.00 | 77 | 1014.7 | |
| 20260830175539 | 70 | 0.0 | 0.0 | 0.00 | 0.00 | 0.00 | 76 | 1014.7 | |
| 20260830175033 | 70 | 0.0 | 0.0 | 0.00 | 0.00 | 0.00 | 75 | 1014.7 | |
| 20260830174528 | 71 | 0.0 | 0.0 | 0.00 | 0.00 | 0.00 | 76 | 1014.7 | |
| 20260830174021 | 71 | 0.0 | 0.0 | 0.00 | 0.00 | 0.00 | 76 | 1014.7 | |
| 20260830173615 | 72 | 0.0 | 0.0 | 0.00 | 0.00 | 0.00 | 74 | 1014.7 | |
| 20260830173021 | 72 | 0.0 | 0.0 | 0.00 | 0.00 | 0.00 | 72 | 1014.7 | |
| 20260830172556 | 73 | 0.0 | 0.0 | 0.00 | 0.00 | 0.00 | 70 | 1014.8 | |
| 20260830172021 | 73 | 0.0 | 0.0 | 0.00 | 0.00 | 0.00 | 71 | 1014.8 | |
| 20260830171557 | 73 | 0.0 | 0.0 | 0.00 | 0.00 | 0.00 | 69 | 1014.8 | |
| 20260830171021 | 73 | 0.0 | 0.0 | 0.00 | 0.00 | 0.00 | 69 | 1014.8 | |
| 20260830170515 | 73 | 0.0 | 0.0 | 0.00 | 0.00 | 0.00 | 69 | 1014.8 | |
| 20260830170046 | 74 | 0.0 | 0.0 | 0.00 | 0.00 | 0.00 | 69 | 1014.8 | |
| 20260830165545 | 74 | 0.0 | 0.0 | 0.00 | 0.00 | 0.00 | 69 | 1014.8 | |
| 20260830165051 | 74 | 0.0 | 0.0 | 0.00 | 0.00 | 0.00 | 67 | 1014.8 | |
| 20260830164516 | 75 | 320 | 0.0 | 0.0 | 0.00 | 0.00 | 0.00 | 66 | 1014.8 |
| 20260830164021 | 75 | 0.0 | 0.0 | 0.00 | 0.00 | 0.00 | 63 | 1015.2 | |
| 20260830163515 | 75 | 0.0 | 0.0 | 0.00 | 0.00 | 0.00 | 61 | 1015.8 | |
| 20260830163022 | 75 | 0.0 | 0.0 | 0.00 | 0.00 | 0.00 | 61 | 1015.8 | |
| 20260830162516 | 76 | 306 | 0.0 | 2.0 | 0.00 | 0.00 | 0.00 | 59 | 1015.8 |
| 20260830162022 | 76 | 323 | 0.0 | 0.0 | 0.00 | 0.00 | 0.00 | 59 | 1015.8 |
| 20260830161517 | 76 | 324 | 0.0 | 1.0 | 0.00 | 0.00 | 0.00 | 58 | 1015.8 |
| 20260830161036 | 76 | 324 | 0.0 | 1.0 | 0.00 | 0.00 | 0.00 | 58 | 1015.8 |
| 20260830160530 | 76 | 324 | 0.0 | 1.0 | 0.00 | 0.00 | 0.00 | 57 | 1015.8 |
| 20260830160024 | 76 | 310 | 1.0 | 3.0 | 0.00 | 0.00 | 0.00 | 57 | 1015.8 |
| 20260830155518 | 77 | 304 | 1.0 | 2.0 | 0.00 | 0.00 | 0.00 | 55 | 1015.8 |
| 20260830155024 | 77 | 314 | 0.0 | 2.0 | 0.00 | 0.00 | 0.00 | 55 | 1015.8 |
| 20260830154518 | 77 | 308 | 1.0 | 2.0 | 0.00 | 0.00 | 0.00 | 55 | 1015.8 |
| 20260830154024 | 78 | 309 | 1.0 | 2.0 | 0.00 | 0.00 | 0.00 | 54 | 1015.9 |
| 20260830153519 | 77 | 310 | 0.0 | 2.0 | 0.00 | 0.00 | 0.00 | 54 | 1015.8 |
| 20260830153025 | 77 | 313 | 0.0 | 2.0 | 0.00 | 0.00 | 0.00 | 54 | 1015.8 |
| 20260830152519 | 78 | 313 | 1.0 | 2.0 | 0.00 | 0.00 | 0.00 | 54 | 1015.9 |
| 20260830152025 | 78 | 303 | 1.0 | 6.0 | 0.00 | 0.00 | 0.00 | 52 | 1015.9 |
| 20260830151549 | 78 | 307 | 1.0 | 2.0 | 0.00 | 0.00 | 0.00 | 52 | 1015.9 |
| 20260830151026 | 78 | 290 | 1.0 | 5.0 | 0.00 | 0.00 | 0.00 | 52 | 1015.9 |
| 20260830150520 | 78 | 304 | 1.0 | 5.0 | 0.00 | 0.00 | 0.00 | 53 | 1015.9 |
| 20260830150026 | 77 | 285 | 2.0 | 8.0 | 0.00 | 0.00 | 0.00 | 53 | 1015.8 |
| 20260830145520 | 77 | 312 | 1.0 | 3.0 | 0.00 | 0.00 | 0.00 | 53 | 1015.8 |
| 20260830145027 | 77 | 295 | 2.0 | 5.0 | 0.00 | 0.00 | 0.00 | 54 | 1015.9 |
| 20260830144521 | 78 | 303 | 1.0 | 5.0 | 0.00 | 0.00 | 0.00 | 53 | 1015.9 |
| 20260830144015 | 77 | 284 | 2.0 | 6.0 | 0.00 | 0.00 | 0.00 | 52 | 1015.9 |
| 20260830143521 | 77 | 285 | 2.0 | 10.0 | 0.00 | 0.00 | 0.00 | 54 | 1015.9 |
| 20260830143015 | 77 | 294 | 1.0 | 4.0 | 0.00 | 0.00 | 0.00 | 54 | 1015.9 |
| 20260830142521 | 77 | 293 | 2.0 | 6.0 | 0.00 | 0.00 | 0.00 | 54 | 1015.9 |
| 20260830142016 | 77 | 281 | 2.0 | 8.0 | 0.00 | 0.00 | 0.00 | 53 | 1015.9 |